{"data":{"norad_id":68865,"intl_designator":"2026-095B","name":"KUIPER-00353","alt_names":[],"object_type":"PAYLOAD","status":"ACTIVE","operator":null,"country":"US","launch_date":"2026-04-28","launch_site_code":"AFETR","launch_vehicle":null,"mission":null,"orbit_class":"UNKNOWN","rcs_meters":null,"size_class":null,"mass_kg":null,"dimensions":null,"purposes":[],"wikipedia_slug":null,"has_3d_model":false,"image_url":null,"decayed_at":null,"tle_current":{"epoch":"2026-09-20T03:05:05.085312Z","epoch_age_seconds":47602,"freshness":"FRESH","line1":"1 68865U 26095B   26263.12853108  .00000045  00000+0  34876-4 0  9992","line2":"2 68865  51.8998 175.8275 0001003 135.6911 224.4131 14.79926670 21887","mean_motion":14.7992667,"eccentricity":0.0001003,"inclination_deg":51.8998,"raan_deg":175.8275,"arg_perigee_deg":135.6911,"mean_anomaly_deg":224.4131,"bstar":3.4876e-5,"rev_number":2188,"period_min":97.302118354283,"perigee_km":628.85273991871,"apogee_km":630.25848305657,"semimajor_km":7007.6926114876,"source":"CELESTRAK","updated_at":"2026-09-20T09:00:24.507008Z"}}}